Preview of NWS' New Version of Forecast
This preview is not operational and should not be used for support decisions.
Latest weather observations around

New Orleans, New Orleans Lakefront Airport (KNEW)

Using International System of Units (Switch to English Units)
Date/ Time (CDT) Wind (kph) Vis. (km) Weather Sky Cond. Temp (°C) Rel. Humidity Wind Chill (°C) Heat Index (°C) Pressure Precip. (cm)
Air Dwpt 6 hour Altimeter (hPa) Sea level (hPa) 1 hr 3 hr 6 hr
Max Min
Jul 22 10:53 WNW 9 16.09 Clear CLR 29 24     72%   34 1016.3 1015.5      
Jul 22 09:53 W 17 16.09 Clear CLR 28 23     74%   32 1016.6 1015.7      
Jul 22 08:53 WSW 11 16.09 Mostly Clear FEW040 28 23     74%   32 1016.6 1015.9      
Jul 22 07:53 SW 11 16.09 Clear CLR 27 24     82%   30 1016.6 1015.9      
Jul 22 06:53 SW 11 16.09 Cloudy OVC110 26 24     88%   28 1016.3 1015.5     0
Jul 22 05:53 SW 13 16.09 Cloudy OVC110 26 24     88%   28 1015.6 1015      
Jul 22 04:53 SSW 9 16.09 Cloudy OVC100 26 24     90%   27 1015.2 1014.6 0    
Jul 22 03:53 S 5 12.87 Light Rain FEW030 BKN065 OVC075 24 23     91%   25 1015.2 1014.4 0 0  
Jul 22 02:53 S 9 16.09 Partly Cloudy FEW044 SCT060 26 24     90%   27 1015.2 1014.5      
Jul 22 01:53 SSE 5 16.09 Mostly Clear FEW031 26 24     90%   27 1015.2 1014.4      
Jul 22 00:53 S 11 16.09 Mostly Clear FEW020 26 24     90%   27 1015.2 1014.4     0
Jul 21 23:53 SSE 11 16.09 Clear CLR 26 24     90%   27 1015.2 1014.7      
Jul 21 22:53 SE 5 16.09 Clear CLR 26 24     90%   27 1015.6 1014.9      
Jul 21 21:53 ESE 5 16.09 Clear CLR 26 24     88%   28 1015.6 1015   0  
Jul 21 20:53 Calm 16.09 Clear CLR 26 23     85%   28 1015.2 1014.4 0    
Jul 21 20:24 Calm 16.09 Mostly Cloudy FEW022 SCT031 BKN040 26 23     85%   28 1015.2   0    
Jul 21 19:53   16.09 Mostly Cloudy FEW016 BKN023 BKN032 27 24     85%   29 1015.9 1015.2 0    
Jul 21 19:24 NNE 9 16.09 Mostly Cloudy FEW027 SCT043 BKN110 27 23     82%   29 1015.9   0    
Jul 21 19:09 NNE 11 16.09 Light Rain FEW024 BKN035 OVC075 27 24     85%   29 1016.3   0    
Jul 21 19:00 ENE 5 16.09 Light Rain FEW020 BKN034 OVC042 27 24     85%   29 1016.3   0    
Jul 21 18:53 ENE 8 2.82 Rain and Fog/Mist SCT020 BKN036 OVC042 26 24     88%   28 1016.3 1015.4 1   3
Jul 21 18:49 ENE 9 1.61 Heavy Rain SCT022 BKN036 OVC055 27 24     84%   30 1016.3   1    
Jul 21 18:39 11 0.8 Heavy Rain BKN020 BKN029 OVC038 26 23     85%   28 1016.3   1    
Jul 21 18:30 NW 11 2.82 Rain SCT020 BKN025 OVC055 27 23     82%   29 1016.3   0    
Jul 21 18:27 N 8 4.83 Heavy Rain BKN025 BKN048 BKN055 27 23     82%   29 1016.3   0    
Jul 21 18:02 NNE 8 16.09 Mostly Cloudy SCT025 BKN036 BKN060 28 23     72%   32 1016.3        
Jul 21 17:53 N 9 16.09 Cloudy BKN025 BKN030 OVC060 28 23     74%   32 1016.3 1015.5      
Jul 21 17:38 NNE 8 16.09 Mostly Cloudy BKN025 BKN060 28 23     72%   32 1016.3        
Jul 21 16:53 SW 5 16.09 Mostly Clear FEW120 28 23     74%   32 1015.9 1015.3 0    
Jul 21 15:53 Calm 16.09 Mostly Cloudy FEW080 BKN100 27 22     76%   29 1016.3 1015.6 0 1  
Jul 21 14:53 SSW 9 14.48 Light Rain OVC100 26 23     85%   26 1017.3 1016.5 0    
Jul 21 13:55 SSE 15 4.83 Light Rain and Fog/Mist FEW006 BKN049 OVC075 24 23     94%   25 1018   0    
Jul 21 13:53 SSE 13 2.82 Light Rain and Fog/Mist FEW006 BKN049 OVC075 24 23     94%   25 1018 1017.3 1    
Jul 21 13:40 SW 13 1.61 Heavy Rain and Fog/Mist BKN033 BKN041 OVC050 24 23     94%   25 1018   1    
Jul 21 13:30 SSW 13 1.61 Heavy Rain and Fog/Mist BKN029 BKN038 OVC050 24 23     94%   25 1018.3   1    
Jul 21 13:23 SSW 18 1.21 Heavy Rain and Fog/Mist BKN031 BKN041 OVC050 24 23     94%   25 1018.6   1    
Jul 21 13:05 SSW 26 1.21 Heavy Rain and Fog/Mist BKN024 OVC047 24 23     94%   25 1018.3   0    
Jul 21 12:58 S 22 1.61 Thunderstorms and Heavy Rain and Fog/Mist BKN018 OVC046 24 23     91%   25 1018.6   0    
Jul 21 12:53 S 26 0.8 Thunderstorms and Heavy Rain and Fog FEW006 OVC016 24 23     91%   25 1018.6 1017.8 4   4
Jul 21 12:51 SSW 32 0.8 Thunderstorms and Heavy Rain and Fog VV015 24 23     94%   25 1018.6   4    
Jul 21 12:48   0.4 Thunderstorms and Heavy Rain and Fog FEW006 OVC013 24 23     94%   25 1018.3   3    
Jul 21 12:36 SSE 18 0.4 Thunderstorms and Heavy Rain and Fog BKN008 BKN014 OVC022 24 23     91%   25 1018.6   2    
Jul 21 12:33 SE 24 0.8 Heavy Rain and Fog BKN011 BKN016 OVC038 25 23     88%   26 1018.6   1    
Jul 21 12:27   2.41 Heavy Rain and Fog/Mist SCT011 BKN018 OVC050 26 23     87%   26 1018.6   0    
Jul 21 11:53 NNE 15 16.09 Clear CLR 31 23     63%   35 1016.9 1016.3      
Jul 21 10:53 NNE 9 16.09 Clear CLR 31 22     61%   34 1017.3 1016.5      
Jul 21 09:53 Calm 16.09 Clear CLR 29 22     65%   32 1016.9 1016.3      
Jul 21 08:53 SSW 8 16.09 Mostly Cloudy BKN110 28 22     69%   30 1017.3 1016.4      
Jul 21 07:53 Calm 16.09 Clear CLR 28 22     69%   30 1016.6 1015.8      
Jul 21 06:53 Calm 16.09 Mostly Clear FEW019 26 24     88%   28 1016.6 1015.9      
Jul 21 05:53 SSE 8 16.09 Clear CLR 26 23     87%   26 1016.6 1015.8      
Jul 21 04:53 SE 5 16.09 Clear CLR 26 24     88%   28 1016.3 1015.4      
Jul 21 03:53 Calm 16.09 Mostly Clear FEW110 26 24     88%   28 1016.3 1015.5      
Jul 21 02:53 Calm 16.09 Clear CLR 26 24     88%   28 1016.3 1015.4      
Jul 21 01:53 SSE 8 16.09 Clear CLR 26 24     90%   27 1015.9 1015.3      
Jul 21 00:53 SSE 9 16.09 Clear CLR 26 24     90%   27 1016.6 1015.7      
Jul 20 23:53 SE 11 12.87 Clear CLR 26 23     87%   26 1016.6 1016      
Jul 20 22:53 SSE 8 16.09 Clear CLR 25 23     88%   26 1016.9 1016.2      
Jul 20 21:53 S 8 16.09 Clear CLR 25 22     84%   26 1016.6 1015.9      
Jul 20 20:53 S 8 16.09 Clear CLR 26 23     85%   26 1016.3 1015.7      
Jul 20 19:53 S 8 16.09 Clear CLR 26 23     85%   26 1015.6 1014.9      
Jul 20 18:53 SSE 11 16.09 Clear CLR 26 22     82%   26 1015.9 1015.1 0   0
Jul 20 17:53 S 15 16.09 Light Rain FEW040 SCT055 BKN110 25 23     88%   26 1016.6 1015.8 0    
Jul 20 16:53 SSE 15 14.48 Light Rain SCT090 SCT110 24 22     85%   25 1017.6 1017 0    
Jul 20 15:53 SSE 18 16.09 Light Rain BKN038 BKN070 OVC090 24 22     88%   25 1017.6 1016.8 0 0  
Jul 20 14:53 SSE 17 14.48 Light Rain FEW037 BKN110 24 22     90%   25 1017.3 1016.5 0    
Jul 20 14:29 SSE 24 16.09 Light Rain SCT034 BKN041 OVC120 24 22     85%   25 1018.3   0    
Jul 20 13:53 SSE 22 11.27 Light Rain FEW046 SCT070 BKN110 24 21     82%   25 1018 1017.3 0    
Jul 20 13:26 SE 17 16.09 Thunderstorms FEW044 27 21     69%   28 1018        
Jul 20 13:16 S 24 2.01 Thunderstorms and Haze FEW044 27 19     64%   28 1017.6        
Jul 20 12:53 5 16.09 Thunderstorms SCT035 31 24     68%   37 1018 1017.3      
Jul 20 12:38 NNE 15 16.09 Clear   31 24     68%   37 1017.6        
Jul 20 12:31 NNE 13 16.09 Clear   32 24     65%   38 1017.6        
Jul 20 12:16 NNE 17 16.09 Clear   31 24     68%   37 1017.6        
Jul 20 12:06 NE 13 16.09 Clear   31 24     68%   36 1017.6        
Jul 20 11:53 NNE 13 16.09 Clear   31 24     68%   36 1017.6 1017.1      
Jul 20 10:53 NNE 9 16.09 Clear CLR 31 23     65%   35 1018 1017.4      
Jul 20 09:53 Calm 16.09 Clear CLR 29 23     70%   32 1018 1017.2      
Jul 20 08:53 W 5 16.09 Clear CLR 28 23     74%   31 1018.6 1017.8      
Jul 20 07:53 WSW 11 16.09 Clear CLR 28 22     72%   30 1018 1017.4      
Jul 20 06:53 NW 9 16.09 Clear CLR 27 22     74%   29 1017.6 1016.9 0   0
Jul 20 06:00   14.48 Light Rain SCT025 BKN045 OVC110 25 23     88%   26 1017.6   0    
Jul 20 05:53   11.27 Light Rain SCT024 BKN029 BKN041 26 23     85%   26 1017.6 1016.8 0    
Jul 20 05:41   14.48 Mostly Cloudy FEW016 BKN024 27 23     79%   29 1017.6        
Jul 20 05:28 ESE 9 16.09 Mostly Clear FEW025 28 24     79%   33 1017.3        
Jul 20 05:13 E 9 16.09 Clear CLR 28 24     79%   33 1016.9        
Jul 20 04:53 SSE 5 16.09 Clear CLR 28 24     79%   33 1016.9 1016.1      
Jul 20 04:43 SE 5 16.09 Clear CLR 28 24     79%   33 1016.6        
Jul 20 03:53 Calm 16.09 Clear CLR 28 24     79%   33 1016.3 1015.4      
Jul 20 02:53 SSE 5 16.09 Clear CLR 28 24     79%   33 1015.9 1015.3      
Jul 20 01:53 S 8 16.09 Clear CLR 28 24     79%   32 1015.9 1015.3      
Jul 20 00:53 S 9 16.09 Clear CLR 28 24     77%   32 1016.9 1016.1      
Jul 19 23:53 S 11 16.09 Clear CLR 28 24     79%   33 1017.3 1016.4      
Jul 19 22:53 S 11 16.09 Clear CLR 29 24     74%   33 1017.6 1016.8      
Jul 19 21:53 S 13 16.09 Clear CLR 29 24     72%   34 1017.3 1016.5      
Jul 19 20:53 S 11 16.09 Clear CLR 30 24     70%   35 1017.3 1016.4      
Jul 19 19:53 SSW 8 16.09 Mostly Clear FEW043 31 23     63%   36 1016.9 1016.2      
Jul 19 18:53 S 11 16.09 Partly Cloudy SCT043 31 23     61%   35 1016.6 1015.9     2
Jul 19 17:53 SSE 15 16.09 Mostly Clear FEW045 FEW100 32 23     61%   37 1016.3 1015.5      
Jul 19 16:53 SSW 9 16.09 Mostly Clear FEW042 33 23     56%   38 1016.6 1015.9      
Jul 19 15:53 WNW 5 11.27 Clear CLR 31 25     70%   38 1017.6 1016.7 0 2  
Jul 19 15:01 Calm 11.27 Rain BKN031 OVC070 27 22     74%   30 1018   0    
Jul 19 14:53 8 11.27 Thunderstorms and Heavy Rain BKN021 BKN031 OVC044 27 21     69%   28 1018.3 1017.5 2    
Jul 19 14:46 NNW 15 11.27 Thunderstorms and Heavy Rain BKN035 27 21     69%   28 1018.3   2    
Jul 19 14:37 S 13 1.21 Thunderstorms and Heavy Rain BKN035 28 24     79%   32 1018.6   1    
Jul 19 14:31 SW 17 2.82 Heavy Rain BKN035 28 24     79%   32 1018.3   0    
Jul 19 14:26 SW 22 11.27 Light Rain BKN035 29 23     72%   33 1018.3   0    
Jul 19 14:07 5 16.09 Thunderstorms BKN035 31 23     61%   35 1018.6        
Jul 19 13:53 NE 5 16.09 Clear CLR 32 23     58%   37 1018.6 1017.9      
Jul 19 13:39 N 11 16.09 Clear CLR 33 23     54%   38 1018.3        
Jul 19 12:53 N 9 16.09 Clear CLR 33 24     60%   39 1019.3 1018.6      
Jul 19 11:53 NNE 11 16.09 Clear CLR 32 24     65%   38 1020 1019.1      
Jul 19 10:53 NNE 11 16.09 Clear CLR 31 25     70%   38 1019.7 1019.1      
Jul 19 09:53 NNW 8 16.09 Clear CLR 30 25     75%   36 1019.7 1018.8      
Jul 19 08:53 Calm 16.09 Clear CLR 29 25     80%   34 1019.3 1018.5      
Jul 19 07:53 Calm 16.09 Clear CLR 28 25     82%   33 1018.6 1018      
Jul 19 06:53 Calm 16.09 Clear CLR 27 25     88%   31 1017.6 1017      
Jul 19 05:53 S 5 16.09 Clear CLR 26 24     88%   28 1017.3 1016.5      
Jul 19 04:53 SSW 5 16.09 Clear CLR 27 24     85%   29 1016.6 1016      
Jul 19 03:53 SW 9 16.09 Clear CLR 27 24     85%   31 1016.6 1015.8      
Jul 18 20:53 S 9 16.09 Clear CLR 29 24     74%   33 1016.9 1016.3      
Jul 18 18:53 SSW 11 16.09 Clear CLR 31 24     66%   37 1016.6 1015.9     0
Jul 18 17:53 SSE 17 16.09 Clear CLR 31 24     68%   37 1016.6 1015.8      
Jul 18 16:53 8 16.09 Clear CLR 30 26     80%   38 1016.9 1016.2      
Jul 18 15:53 Calm 16.09 Clear CLR 27 24     85%   31 1017.6 1016.9 0 0  
Jul 18 15:07 ESE 13 16.09 Light Rain SCT048 BKN095 BKN110 26 24     88%   28 1018   0    
Jul 18 14:53 SE 17 8.05 Thunderstorms and Rain FEW050 SCT080 BKN110 26 23     85%   26 1018.3 1017.6 0    
Jul 18 13:53   6.44 Thunderstorms and Rain FEW019 BKN070 OVC090 28 25     85%   32 1018.3 1017.7 0    
Jul 18 13:34 SSE 22 14.48 Thunderstorms FEW017 SCT035 BKN060 30 26     77%   37 1019        
Jul 18 12:53 NE 13 16.09 Clear CLR 30 26     77%   37 1019 1018.1 0   0
Jul 18 11:53 E 13 4.83 Rain FEW033 BKN049 OVC060 28 24     79%   33 1019.3 1018.7 0    
Jul 18 11:51 E 15 4.83 Rain FEW032 SCT041 OVC049 29 25     79%   35 1019.3   0    
Jul 18 11:44 ENE 8 2.82 Heavy Rain FEW032 BKN050 OVC060 29 24     77%   34 1019.3   0    
Jul 18 11:16 N 15 16.09 Mostly Cloudy BKN032 BKN039 BKN050 32 26     72%   40 1019.3        
Jul 18 11:09 N 13 16.09 Mostly Cloudy BKN029 BKN036 31 26     75%   38 1019.3        
Jul 18 10:53 N 13 16.09 Mostly Cloudy SCT027 BKN046 31 26     75%   39 1019.3 1018.5      
Jul 18 09:53 NW 8 16.09 Clear CLR 30 26     80%   38 1018.6 1018.1      
Jul 18 08:53 WNW 5 14.48 Clear CLR 29 26     80%   36 1019 1018.4      
Jul 18 07:53 Calm 14.48 Mostly Clear FEW013 29 26     82%   35 1019 1018.2      
Jul 18 06:53 Calm 14.48 Clear CLR 28 26     90%   33 1018.6 1018      
Jul 18 05:53 SW 5 16.09 Clear CLR 28 26     88%   33 1018.6 1017.9      
Jul 18 04:53 WSW 8 16.09 Clear CLR 28 26     88%   33 1018.6 1017.8      
Jul 18 03:53 WSW 8 16.09 Clear CLR 28 25     82%   33 1018.3 1017.6      
Jul 18 02:53 W 5 14.48 Clear CLR 28 25     82%   33 1018.3 1017.7      
Jul 18 01:53 SW 5 16.09 Clear CLR 28 24     79%   33 1018.6 1017.9      
Jul 18 00:53 S 8 16.09 Clear CLR 28 24     82%   32 1018.6 1017.8      
Jul 17 23:53 S 11 16.09 Clear CLR 28 24     77%   32 1018.3 1017.7      
Jul 17 22:53 S 11 16.09 Clear CLR 28 23     74%   32 1018.3 1017.6      
Jul 17 21:53 S 13 16.09 Clear CLR 29 23     72%   33 1018 1017.3      
Jul 17 20:53 S 17 16.09 Clear CLR 30 23     65%   34 1018 1017.3      
Jul 17 19:53 S 11 16.09 Mostly Cloudy FEW049 BKN070 31 23     63%   35 1017.6 1016.9      
Jul 17 18:53 SSE 17 16.09 Mostly Cloudy FEW002 BKN041 32 22     56%   36 1017.6 1016.8      
Jul 17 18:42 SE 15 16.09 Thunderstorms FEW002 BKN041 32 23     58%   37 1017.6        
Jul 17 18:30 SE 15 16.09 Thunderstorms SCT041 33 23     57%   38 1017.6        
Jul 17 17:53 ESE 13 16.09 Clear CLR 33 24     60%   39 1017.6 1017      
Jul 17 16:53 NE 13 16.09 Mostly Clear FEW039 33 24     61%   40 1018 1017.3      
Jul 17 15:53 NNE 15 16.09 Clear CLR 33 24     61%   40 1019 1018.1      
Jul 17 14:53 NNE 13 14.48 Clear CLR 32 24     64%   39 1019.7 1018.8      
Jul 17 13:53 NNE 11 14.48 Clear CLR 32 24     63%   37 1020 1019.4      
Jul 17 12:53 N 11 12.87 Clear CLR 32 25     68%   39 1020.7 1019.9      
Jul 17 11:53 N 11 12.87 Clear CLR 31 26     73%   39 1021 1020.3      
Jul 17 10:53 N 11 12.87 Clear CLR 31 26     75%   38 1021 1020.2      
Jul 17 09:53 N 9 12.87 Clear CLR 30 26     77%   37 1020.7 1020.1      
Jul 17 08:53 N 5 11.27 Mostly Clear FEW017 29 26     82%   35 1020.3 1019.7      
Jul 17 07:53 SSW 5 11.27 Clear CLR 28 26     88%   33 1020 1019.4      
Jul 17 06:53 Calm 9.66 Fog/Mist CLR 27 24     87%   30 1019.3 1018.8      
Jul 17 05:53 SW 8 12.87 Clear CLR 26 24     90%   28 1019 1018.2      
Jul 17 04:53 WSW 5 12.87 Clear CLR 27 24     87%   30 1018.3 1017.7      
Jul 17 03:53 Calm 12.87 Clear CLR 26 24     90%   28 1018.6 1017.8      
Jul 17 02:53 S 8 12.87 Clear CLR 27 24     85%   29 1018.6 1017.8      
Jul 17 01:53 S 11 12.87 Clear CLR 27 24     85%   29 1019 1018.2      
Jul 17 00:53 S 9 12.87 Clear   27 24     85%   29 1019.3 1018.5      
Jul 16 23:53 S 8 12.87 Clear CLR 27 24     87%   30 1019.3 1018.7      
Jul 16 22:53 S 9 12.87 Clear CLR 27 24     82%   30 1019.3 1018.6      
Jul 16 21:53 SSE 13 12.87 Clear CLR 28 24     77%   32 1018.6 1018      
Jul 16 20:53 S 8 12.87 Clear CLR 28 24     77%   32 1018.3 1017.6      
Jul 16 17:53 SSE 22 12.87 Clear CLR 32 22     55%   35 1017.6 1017      
Jul 16 16:53 S 22 16.09 Clear CLR 33 22     54%   37 1018 1017.1      
Jul 16 15:53 S 22 16.09 Mostly Clear FEW043 33 22     51%   37 1018.3 1017.7      
Jul 16 14:53 SSE 28 16.09 Clear CLR 33 23     54%   38 1019 1018.1      
Jul 16 13:53 SSE 18 16.09 Mostly Clear FEW039 33 23     56%   39 1019.3 1018.4      
Jul 16 12:53 S 13 16.09 Mostly Clear FEW039 33 23     57%   38 1020 1019.1      
Jul 16 11:53 SE 15 16.09 Mostly Cloudy SCT035 BKN043 32 23     59%   37 1020 1019.2      
Jul 16 10:53 SSW 13 14.48 Mostly Clear FEW031 32 24     63%   37 1020.3 1019.5      
Jul 16 09:53 S 15 14.48 Clear CLR 30 24     70%   35 1020 1019.3      
Jul 16 08:53 S 18 12.87 Mostly Clear FEW008 FEW015 29 25     80%   34 1019.7 1019.1      
Jul 16 07:53 S 13 9.66 Fog/Mist FEW010 28 26     88%   33 1019.7 1018.8      
Jul 16 06:53 S 11 8.05 Fog/Mist CLR 27 26     94%   30 1019 1018.4      
Jul 16 05:53 S 13 11.27 Clear CLR 27 26     94%   30 1018.3 1017.7      
Jul 16 05:16 S 13 11.27 Partly Cloudy SCT007 27 26     94%   30 1018        
Jul 16 05:03 S 11 9.66 Fog/Mist BKN007 27 26     94%   30 1017.6        
Jul 16 04:53 S 17 9.66 Fog/Mist SCT007 27 26     91%   31 1017.6 1016.9      
Jul 16 03:53 SSE 15 9.66 Fog/Mist FEW007 27 26     94%   30 1017.3 1016.5      
Jul 16 02:53 S 11 11.27 Mostly Clear FEW008 27 26     94%   30 1017.3 1016.7      
Jul 16 02:39 S 15 11.27 Mostly Clear FEW008 27 26     91%   31 1017.6        
Jul 16 01:53 S 13 11.27 Clear CLR 27 26     91%   31 1018 1017.2      
Jul 16 00:53 S 11 11.27 Clear CLR 27 26     91%   31 1018.3 1017.4      
Jul 16 00:19 S 9 12.87 Clear   27 26     91%   31 1018        
Jul 15 23:53 S 13 12.87 Clear   27 26     91%   31 1018 1017.2      
Jul 15 23:29 S 13 12.87 Mostly Clear FEW009 27 26     91%   31 1018        
Jul 15 22:53 S 15 12.87 Clear CLR 28 26     88%   33 1018 1017.3      
Jul 15 21:53 SSE 15 14.48 Mostly Clear FEW012 28 26     88%   33 1017.6 1017      
Jul 15 20:53 S 13 14.48 Mostly Clear FEW014 28 25     82%   33 1017.3 1016.4      
Jul 15 19:53 S 17 14.48 Partly Cloudy FEW017 SCT032 29 25     80%   34 1016.9 1016.3      
Jul 15 18:53 SSE 24 14.48 Partly Cloudy SCT021 29 24     75%   35 1016.6 1015.8      
Jul 15 17:53 S 21 16.09 Mostly Clear FEW023 30 24     72%   36 1016.3 1015.6      
Jul 15 17:03 S 28 8.05 Haze SCT029 BKN036 31 24     66%   37 1016.6        
Jul 15 16:53 S 26 16.09 Mostly Cloudy BKN029 31 24     66%   37 1016.6 1016      
Jul 15 15:53 S 26 16.09 Mostly Clear FEW026 FEW033 31 24     70%   36 1016.9 1016.1      
Jul 15 14:53 S 26 16.09 Mostly Clear FEW028 31 24     68%   37 1017.3 1016.7      
Jul 15 14:37 S 26 16.09 Partly Cloudy SCT026 SCT032 31 24     68%   37 1017.6        
Jul 15 14:23 S 32 16.09 Mostly Cloudy and Windy BKN027 BKN048 31 24     70%   36 1017.6        
Jul 15 14:00 S 28 14.48 Mostly Cloudy SCT024 BKN032 BKN046 31 25     72%   37 1017.6        
Jul 15 13:53 S 24 14.48 Mostly Cloudy FEW022 BKN028 BKN046 31 26     75%   38 1017.6 1016.8      
Jul 15 13:00 WSW 22 16.09 Mostly Cloudy BKN023 28        %     1018.3        
Jul 15 12:53 S 21 14.48 Partly Cloudy SCT023 SCT031 29 26     80%   36 1018.3 1017.5 0   0
Jul 15 12:42 S 24 6.44 Light Rain SCT023 BKN033 BKN045 29 26     82%   36 1018.3   0    
Jul 15 12:33 SW 9 1.61 Heavy Rain BKN022 BKN030 BKN044 28 24     79%   33 1018.3   0    
Jul 15 12:28 S 28 4.02 Light Rain SCT022 BKN030 BKN034 29 25     77%   35 1018.3   0    
Jul 15 11:53 S 26 14.48 Mostly Clear FEW020 31 26     75%   38 1018.3 1017.6      
Jul 15 11:32 S 28 14.48 Partly Cloudy SCT018 30 26     77%   37 1018.6        
Jul 15 10:53 SSE 18 11.27 Mostly Cloudy SCT014 BKN019 BKN024 29 26     85%   36 1018.6 1018      
Jul 15 10:32 SSE 15 11.27 Mostly Cloudy SCT013 BKN019 BKN024 29 27     88%   36 1018.6        
Jul 15 09:53 S 15 9.66 Fog/Mist BKN011 BKN018 28 26     88%   34 1018.3 1017.6 0 0  
Jul 15 09:49 S 15 9.66 Fog/Mist BKN011 BKN018 28 26     89%   34 1018.3   0    
Jul 15 08:53 S 17 8.05 Light Rain and Fog/Mist SCT012 SCT050 BKN070 28 26     90%   33 1017.6 1016.8 0    
Jul 15 07:53 S 13 8.05 Light Rain and Fog/Mist FEW013 BKN070 BKN100 27 26     94%   32 1017.3 1016.5 0    
Jul 15 06:53 S 18 9.66 Fog/Mist FEW100 27 26     91%   31 1016.3 1015.6 0   0
Jul 15 05:53 S 21 12.87 Mostly Cloudy SCT095 BKN120 27 26     91%   31 1015.9 1015.1 0    
Jul 15 04:53 S 28 12.87 Mostly Cloudy FEW012 BKN110 28 26     88%   33 1015.2 1014.7      
Jul 15 03:53 S 24 11.27 Mostly Cloudy FEW011 BKN120 28 26     88%   33 1015.2 1014.7      
Jul 15 03:28 S 26 11.27 Partly Cloudy SCT011 28 26     88%   33 1015.2        
Jul 15 03:18 S 22 11.27 Mostly Cloudy BKN011 28 26     90%   33 1015.2        
Jul 15 02:53 S 22 11.27 Partly Cloudy SCT011 28 26     90%   33 1015.2 1014.6      
Jul 15 01:53 S 18 11.27 Partly Cloudy FEW012 SCT021 28 26     90%   33 1015.9 1015.1      
Jul 15 01:38 SSE 22 11.27 Mostly Cloudy FEW014 SCT021 BKN036 28 26     90%   33 1015.9        
Jul 15 01:02 S 21 9.66 Fog/Mist SCT012 BKN018 BKN027 28 26     90%   33 1015.9        
Jul 15 00:53 SSE 22 11.27 Mostly Cloudy BKN013 BKN018 28 26     90%   33 1015.9 1015.2     0
Jul 14 23:53 S 17 9.66 Fog/Mist BKN011 OVC018 28 26     90%   33 1016.3 1015.7      
Jul 14 22:53 SSE 24 11.27 Mostly Cloudy BKN013 BKN023 28 26     90%   33 1015.9 1015      
Jul 14 21:53 SSE 15 9.66 Fog/Mist BKN010 OVC022 28 26     90%   33 1015.9 1015.4   0  
Jul 14 21:51 SSE 17 9.66 Fog/Mist BKN010 BKN014 OVC022 28 26     89%   34 1015.9        
Jul 14 21:40 SSE 18 9.66 Fog/Mist SCT009 OVC022 28 26     90%   33 1015.9        
Jul 14 21:32 SSE 18 9.66 Fog/Mist BKN009 BKN015 OVC110 28 26     90%   33 1016.3        
Jul 14 21:10 SSE 17 9.66 Fog/Mist SCT009 SCT015 BKN024 28 26     90%   33 1015.9        
Jul 14 20:53 SSE 21 9.66 Fog/Mist FEW009 SCT024 SCT120 28 26     90%   33 1015.9 1015.3 0    
Jul 14 20:06 SSE 18 9.66 Fog/Mist FEW007 27 26     94%   32 1015.9        
Jul 14 19:53 SSE 17 8.05 Fog/Mist CLR 27 26     94%   32 1015.6 1015 0    
Jul 14 19:04 SSE 21 8.05 Light Rain and Fog/Mist SCT027 SCT120 27 26     91%   31 1015.2   0    
Jul 14 18:53 SE 21 8.05 Light Rain and Fog/Mist BKN027 27 26     91%   31 1015.6 1014.8 0   1
Jul 14 18:39 SSE 21 8.05 Light Rain and Fog/Mist FEW011 BKN028 27 26     91%   31 1015.6   0    
Jul 14 18:28 SSE 21 8.05 Light Rain and Fog/Mist FEW011 BKN030 27 26     91%   31 1015.6   0    
Jul 14 18:09 SSE 18 8.05 Light Rain and Fog/Mist FEW011 BKN028 27 25     88%   31 1015.6   0    
Jul 14 17:53 SSE 17 8.05 Light Rain and Fog/Mist FEW039 27 25     88%   31 1015.6 1014.7 0    
Jul 14 16:53 SSE 15 12.87 Light Rain FEW060 BKN110 26 23     85%   26 1015.6 1014.9 0    
Jul 14 15:53 SSE 22 16.09 Light Rain FEW045 BKN090 OVC110 25 22     84%   26 1015.9 1015.2 0 1  
Jul 14 14:53 S 24 11.27 Light Rain BKN100 OVC110 24 22     88%   25 1016.6 1016 0    
Jul 14 14:01 SSW 32 6.44 Rain and Fog/Mist FEW045 BKN090 OVC110 24 22     88%   25 1016.9   0    
Jul 14 13:53 SSW 33 3.22 Light Rain and Fog/Mist SCT039 BKN090 OVC110 24 22     88%   25 1016.9 1016.4 0    
Jul 14 13:18 S 24 11.27 Light Rain FEW012 BKN055 OVC095 27 24     87%   30 1016.9   0    
Jul 14 13:07 S 26 4.83 Light Rain and Fog/Mist SCT012 BKN025 OVC070 27 25     88%   31 1016.9   0    
Jul 14 12:53 S 24 4.02 Light Rain and Fog/Mist SCT015 BKN035 OVC100 28 26     90%   33 1016.6 1016 0   2
Jul 14 12:03 SSE 18 8.05 Light Rain and Fog/Mist FEW014 BKN095 OVC110 27 25     88%   31 1016.6   0    
Jul 14 11:53 S 22 6.44 Light Rain and Fog/Mist BKN014 BKN055 OVC110 27 25     88%   31 1016.9 1016.4 0    
Jul 14 11:41 S 15 9.66 Light Rain BKN012 BKN026 OVC110 26 23     82%   28 1017.3   0    
Jul 14 11:02 SSE 30 8.05 Light Rain FEW016 BKN060 OVC110 26 23     85%   26 1016.9   0    
Jul 14 10:53 S 30 4.02 Rain FEW016 BKN034 OVC090 27 24     85%   31 1016.9 1016.2 1    
Jul 14 10:50 SSE 28 4.83 Rain SCT016 BKN034 OVC085 27 24     84%   30 1016.9   1    
Jul 14 10:23 SSE 24 2.82 Rain and Fog/Mist FEW012 BKN090 OVC110 28 26     90%   33 1016.9   0    
Jul 14 09:53 SSE 24 4.83 Rain and Fog/Mist FEW012 BKN070 OVC110 28 26     90%   33 1016.9 1016.1 0 0  
Jul 14 08:53 SE 26 6.44 Light Rain and Fog/Mist FEW016 SCT050 BKN110 27 26     91%   31 1016.3 1015.6 0    
Jul 14 07:53 SE 24 8.05 Light Rain and Fog/Mist SCT013 SCT034 BKN120 27 26     91%   31 1015.9 1015.4 0    
Jul 14 07:18 SSE 21 8.05 Light Rain and Fog/Mist SCT015 SCT024 BKN120 28 26     88%   33 1015.6   0    
Jul 14 07:01 SSE 24 9.66 Fog/Mist BKN016 BKN024 OVC031 28 26     90%   33 1015.6        
Jul 14 06:53 SE 22 9.66 Fog/Mist BKN014 OVC034 27 26     91%   31 1015.2 1014.7 0   1
Jul 14 06:36 SE 26 9.66 Light Rain and Fog/Mist BKN014 BKN044 BKN100 27 26     91%   31 1014.9   0    
Jul 14 05:53 SSE 21 8.05 Light Rain and Fog/Mist SCT012 SCT049 BKN100 28 26     90%   33 1014.9 1014.2 0    
Jul 14 05:50 SSE 18 9.66 Light Rain and Fog/Mist SCT012 SCT100 BKN120 28 26     89%   34 1014.9   0    
Jul 14 04:58 SSE 18 8.05 Rain and Fog/Mist BKN013 BKN028 OVC095 28 26     90%   33 1014.6   0    
Jul 14 04:53 SSE 24 8.05 Light Rain and Fog/Mist SCT013 BKN060 OVC095 28 26     90%   33 1014.2 1013.6 0    
Jul 14 03:53 SE 24 8.05 Light Rain and Fog/Mist FEW014 SCT065 BKN110 28 26     88%   33 1014.2 1013.5 0 0  
Jul 14 03:48 SSE 28 8.05 Light Rain and Fog/Mist FEW014 SCT032 BKN090 28 26     89%   34 1014.2   0    
Jul 14 02:53 SSE 26 8.05 Light Rain and Fog/Mist BKN016 BKN060 OVC110 28 26     88%   33 1014.6 1013.9 0    
Jul 14 02:18 SSE 33 9.66 Light Rain and Fog/Mist SCT016 BKN070 BKN110 28 26     88%   33 1014.2   0    
Jul 14 01:53 SSE 28 11.27 Cloudy BKN013 BKN019 OVC031 28 26     88%   33 1014.2 1013.6 0    
Jul 14 00:53 SSE 28 9.66 Light Rain and Fog/Mist BKN014 OVC021 28 26     88%   33 1014.2 1013.4 0   1
Jul 14 00:36 SSE 28 9.66 Fog/Mist BKN012 BKN018 OVC041 28 26     88%   33 1013.9        
Jul 14 00:11 SSE 28 9.66 Fog/Mist FEW013 BKN024 OVC110 28 26     88%   33 1013.9        
Jul 13 23:53 SSE 33 9.66 Haze FEW014 BKN110 28 25     85%   32 1014.2 1013.4 0    
Jul 13 22:53 SSE 24 9.66 Light Rain and Fog/Mist SCT026 BKN050 OVC120 27 26     91%   31 1014.2 1013.5 0    
Jul 13 21:53 SSE 15 12.87 Mostly Cloudy FEW019 SCT024 BKN120 25 23     90%   26 1013.9 1013.1 0 1  
Jul 13 20:53 S 24 11.27 Light Rain SCT045 OVC095 24 22     88%   25 1013.2 1012.6 0    
Jul 13 20:22   11.27 Light Rain FEW015 BKN070 OVC100 24 23     91%   25 1013.9   0    
Jul 13 20:13 S 32 4.02 Light Rain and Fog/Mist FEW015 BKN070 OVC090 24 23     91%   25 1013.6   0    
Jul 13 20:05 S 35 6.44 Light Rain and Fog/Mist SCT017 BKN033 OVC100 25 23     90%   26 1013.6   0    
Jul 13 19:53 SSE 28 3.22 Rain and Fog/Mist SCT013 BKN033 OVC049 25 23     88%   26 1013.2 1012.5 0    
Jul 13 19:51 SSE 28 3.22 Heavy Rain and Fog/Mist SCT011 BKN031 OVC049 25 23     89%   26 1013.2   0    
Jul 13 19:46   2.82 Rain and Fog/Mist SCT012 BKN028 OVC049 26 24     90%   27 1013.6   0    
Jul 13 19:44 SSW 33 3.22 Rain and Fog/Mist SCT012 BKN030 OVC049 26 24     90%   27 1013.6   0    
Jul 13 19:41 SSW 22 2.82 Rain and Fog/Mist BKN012 BKN026 OVC049 25 24     94%   26 1013.2   0    
Jul 13 19:38 S 17 3.22 Rain and Fog/Mist SCT012 BKN022 OVC055 26 24     90%   27 1013.2   0    
Jul 13 19:31 SSE 28 4.83 Light Rain and Fog/Mist BKN012 BKN026 OVC046 26 23     87%   26 1013.2   0    
Jul 13 19:23 SSE 22 3.22 Rain and Fog/Mist FEW014 BKN026 OVC100 26 23     87%   26 1012.9   0    
Jul 13 18:53 SSE 24 11.27 Cloudy FEW029 BKN041 OVC055 26 23     87%   26 1012.9 1012.2 0   0
Jul 13 17:53 SSE 24 11.27 Light Rain OVC100 26 22     79%   28 1012.5 1011.9 0    
Jul 13 16:53 SSE 28 9.66 Light Rain FEW090 OVC110 25 22     84%   26 1012.5 1012 0    
Jul 13 15:53 S 33 8.05 Light Rain FEW027 OVC095 26 22     82%   26 1012.9 1012.1 0 0  
Jul 13 14:53 S 42 12.87 Clear and Breezy CLR 27 21     71%   28 1011.9 1011.3      
Jul 13 13:53 S 42 12.87 Cloudy and Breezy FEW026 SCT070 OVC080 27 21     71%   28 1012.2 1011.5 0    
Jul 13 13:20 S 48 8.05 Light Rain FEW022 BKN046 OVC055 26 22     79%   28 1011.9   0    
Jul 13 12:53 S 30 11.27 Cloudy FEW020 BKN024 OVC046 27 23     79%   29 1011.5 1010.9 0   1
Jul 13 12:23 SSE 35 9.66 Haze BKN026 OVC031 27 22     76%   29 1011.5        
Jul 13 11:53 SSE 33 9.66 Haze FEW018 BKN031 BKN044 26 23     85%   28 1011.5 1010.7 0    
Jul 13 11:21 S 37 8.05 Fog/Mist SCT018 BKN032 OVC055 25 23     88%   26 1011.5   0    
Jul 13 11:00   3.22 Light Rain and Fog/Mist FEW016 BKN035 OVC050 25 23     88%   26 1011.5   0    
Jul 13 10:53   2.82 Light Rain and Fog/Mist FEW016 BKN026 OVC050 25 23     88%   26 1011.2 1010.6 1    
Jul 13 10:42   0.8 Heavy Rain and Fog BKN020 BKN029 OVC037 24 23     91%   25 1011.2   0    
Jul 13 10:34   2.82 Light Rain FEW017 BKN027 OVC039 26 22     82%   26 1011.5   0    
Jul 13 09:53 SSE 35 11.27 Mostly Cloudy and Windy FEW035 BKN049 BKN110 27 22     74%   30 1009.8 1009.2 0 0  
Jul 13 08:53 S 41 9.66 Haze SCT024 BKN039 BKN049 27 23     77%   30 1010.5 1009.7 0    
Jul 13 08:13 S 32 11.27 Cloudy and Windy SCT024 SCT035 OVC100 27 23     82%   29 1009.5   0    
Jul 13 08:06 S 35 11.27 Cloudy and Windy BKN026 BKN042 OVC110 26 23     85%   28 1009.5   0    
Jul 13 07:53 SSE 46 4.02 Rain FEW023 BKN028 OVC039 26 23     82%   28 1009.2 1008.4 0    
Jul 13 06:53 SSE 32 11.27 Cloudy and Windy BKN041 OVC050 27 21     69%   29 1008.5 1007.7     0
Jul 13 05:53 SSE 39 12.87 Mostly Cloudy and Windy SCT038 BKN110 27 22     72%   29 1007.5 1006.9      
Jul 13 04:53 SSE 39 12.87 Cloudy and Windy BKN070 OVC085 27 22     74%   30 1006.8 1006 0    
Jul 13 03:53 SSE 42 6.44 Light Rain FEW026 BKN070 OVC100 27 23     82%   29 1006.4 1005.9 0 0  
Jul 13 02:53 ESE 26 12.87 Mostly Cloudy FEW023 SCT031 BKN041 27 24     87%   30 1006.1 1005.3 0    
Jul 13 02:20 SE 28 4.83 Light Rain and Fog/Mist FEW015 BKN060 OVC100 26 24     88%   28 1006.4   0    
Jul 13 02:12 SE 37 2.82 Heavy Rain and Fog/Mist SCT017 BKN035 OVC100 26 24     90%   28 1006.8   0    
Jul 13 01:53 SE 33 9.66 Light Rain and Fog/Mist SCT022 BKN045 OVC120 27 24     87%   30 1006.8 1006 0    
Jul 13 00:53 ESE 42 14.48 Clear and Breezy   28 24     77%   32 1006.4 1005.9     0
Jul 12 23:53 ESE 39 12.87 Partly Cloudy and Windy FEW023 SCT031 28 24     77%   32 1006.4 1005.7      
Jul 12 22:53 ESE 42 12.87 Cloudy and Breezy SCT022 BKN030 OVC060 28 24     79%   33 1006.4 1005.9      
Jul 12 22:37   12.87 Cloudy FEW020 BKN032 OVC042 28 24     82%   32 1006.8        
Jul 12 22:26 E 35 11.27 Cloudy and Windy BKN026 BKN033 OVC044 28 24     82%   32 1006.4        
Jul 12 21:53 ESE 39 14.48 Cloudy and Windy FEW025 BKN030 OVC038 28 24     79%   32 1006.4 1005.6 0 0  
Jul 12 21:35   14.48 Cloudy FEW025 BKN035 OVC046 28 24     79%   32 1006.1   0    
Jul 12 21:18   12.87 Cloudy BKN027 BKN035 OVC060 28 23     77%   31 1005.8   0    
Jul 12 20:53   14.48 Cloudy FEW025 OVC034 28 24     79%   32 1006.1 1005.4 0    
Jul 12 20:20   14.48 Cloudy FEW017 SCT030 OVC038 27 24     85%   31 1005.4   0    
Jul 12 20:11   11.27 Cloudy FEW019 BKN029 OVC039 27 24     85%   31 1005.1   0    
Jul 12 19:53   4.83 Light Rain FEW019 BKN030 OVC055 27 24     82%   30 1005.1 1004.5 0    
Jul 12 19:45   14.48 Cloudy SCT026 BKN039 OVC060 27 24     82%   30 1005.1   0    
Jul 12 19:38   14.48 Cloudy FEW022 BKN029 OVC075 27 23     79%   30 1005.1   0    
Jul 12 19:13   9.66 Light Rain SCT021 BKN038 OVC050 28 24     79%   32 1005.1   0    
Jul 12 18:53   11.27 Mostly Cloudy BKN021 BKN038 BKN050 28 24     77%   32 1004.8 1004.1 0   0
Jul 12 18:45 E 39 11.27 Mostly Cloudy and Windy BKN024 BKN043 28 24     77%   32 1004.8   0    
Jul 12 17:53   9.66 Light Rain FEW024 BKN030 OVC049 28 24     77%   32 1004.4 1003.8 0    
Jul 12 17:33   11.27 Cloudy SCT023 BKN031 OVC047 28 24     77%   32 1004.4   0    
Jul 12 17:04 E 39 9.66 Light Rain FEW017 BKN028 BKN038 28 25     82%   33 1004.8   0    
Jul 12 16:53   9.66 Light Rain FEW017 BKN035 OVC046 28 25     82%   33 1004.8 1004 0    
Jul 12 16:25 E 42 6.44 Light Rain SCT018 BKN035 OVC055 28 25     85%   32 1004.8   0    
Jul 12 16:23 E 45 3.22 Light Rain SCT018 BKN024 OVC055 28 25     85%   32 1004.8   0    
Jul 12 16:18 E 35 2.82 Heavy Rain FEW018 BKN034 OVC050 28 24     82%   32 1004.8   0    
Jul 12 15:53 E 41 9.66 Light Rain FEW024 SCT036 BKN045 29 24     72%   34 1004.8 1003.9 0 0  
Jul 12 14:53   9.66 Haze FEW027 SCT044 BKN060 29 24     75%   35 1005.1 1004.4 0    
Jul 12 13:53   11.27 Cloudy BKN037 OVC047 30 23     65%   34 1005.4 1004.6      
Jul 12 12:53 E 39 11.27 Cloudy and Windy FEW022 OVC033 29 23     70%   34 1005.8 1004.9     0
Jul 12 12:30   12.87 Cloudy FEW022 BKN030 OVC049 30 24     70%   35 1005.8        
Jul 12 11:53 ESE 35 12.87 Cloudy and Windy BKN024 OVC033 28 23     74%   32 1006.1 1005.3 0    
Jul 12 10:53   11.27 Cloudy SCT018 BKN025 OVC041 28 24     82%   32 1005.8 1005.2 0    
Jul 12 10:26 E 35 4.83 Light Rain and Fog/Mist FEW012 SCT016 OVC024 27 25     88%   31 1005.8   0    
Jul 12 10:09   2.82 Light Rain FEW011 BKN025 OVC033 27 24     85%   31 1005.4   0    
Jul 12 09:53 E 37 11.27 Cloudy and Windy SCT020 BKN026 OVC032 28 24     82%   32 1005.1 1004.5 0 0  
Jul 12 09:30   12.87 Light Rain SCT018 BKN028 OVC044 27 24     85%   31 1005.4   0    
Jul 12 09:21   4.83 Light Rain and Fog/Mist SCT018 BKN030 OVC041 27 25     88%   31 1005.1   0    
Jul 12 09:17   3.22 Light Rain and Fog/Mist FEW015 BKN031 OVC041 27 24     87%   30 1005.1   0    
Jul 12 08:53 E 33 16.09 Cloudy and Windy FEW010 BKN026 OVC065 27 24     87%   30 1005.1 1004.4 0    
Jul 12 08:45   8.05 Light Rain and Fog/Mist FEW012 BKN026 OVC070 27 24     87%   30 1005.1   0    
Jul 12 08:39   3.22 Light Rain and Fog/Mist SCT015 BKN038 OVC065 26 24     90%   28 1005.1   0    
Jul 12 08:03   2.41 Light Rain and Fog/Mist FEW010 BKN017 OVC022 27 25     88%   31 1005.1   0    
Jul 12 07:53 ENE 42 12.87 Cloudy and Breezy OVC020 28 25     85%   32 1004.8 1003.9 0    
Jul 12 07:40 ENE 45 12.87 Cloudy and Breezy FEW007 SCT017 OVC022 27 25     88%   31 1004.8   0    
Jul 12 07:27 ENE 41 4.83 Light Rain and Fog/Mist FEW007 BKN013 OVC020 27 24     87%   30 1005.1   0    
Jul 12 07:22 ENE 42 2.41 Light Rain and Fog/Mist FEW007 BKN013 OVC027 26 24     90%   28 1005.1   0    
Jul 12 07:15   3.22 Light Rain and Fog/Mist FEW009 BKN013 OVC031 27 24     87%   30 1005.1   0    
Jul 12 07:13   4.83 Light Rain and Fog/Mist BKN013 BKN019 BKN031 27 24     87%   30 1004.8   0    
Jul 12 07:06 ENE 41 3.22 Light Rain and Fog/Mist SCT013 BKN020 BKN031 27 24     87%   30 1004.8   0    
Jul 12 07:02   2.82 Rain and Fog/Mist FEW013 SCT022 BKN031 27 24     87%   30 1005.1   0    
Jul 12 06:53 ENE 41 12.87 Mostly Cloudy and Windy FEW011 SCT021 BKN030 27 24     85%   31 1004.8 1004.1 0   0
Jul 12 06:33 ENE 42 12.87 Mostly Cloudy and Breezy SCT013 BKN022 BKN080 27 24     87%   30 1005.1   0    
Jul 12 05:53 E 26 9.66 Light Rain and Fog/Mist FEW023 BKN044 OVC075 26 24     90%   28 1005.1 1004.4 0    
Jul 12 05:29 ESE 30 8.05 Light Rain FEW017 SCT023 OVC038 26 23     85%   28 1005.1   0    
Jul 12 04:53 E 37 16.09 Mostly Cloudy and Windy SCT021 BKN028 BKN039 28 24     79%   32 1005.1 1004.4      
Jul 12 04:51   16.09 Mostly Cloudy SCT023 BKN028 BKN039 28 24     79%   32 1005.1        
Jul 12 03:53   16.09 Partly Cloudy FEW018 FEW023 SCT034 28 24     82%   32 1004.8 1004 0 0  
Jul 12 02:53   16.09 Partly Cloudy SCT032 29 24     74%   33 1005.1 1004.5      
Jul 12 01:53 E 37 16.09 Partly Cloudy and Windy SCT027 28 24     79%   33 1005.8 1005.1      
Jul 12 00:53 E 35 16.09 Mostly Clear and Windy FEW022 FEW028 29 24     77%   34 1006.8 1005.9     0
Jul 11 23:53 ENE 35 16.09 Mostly Cloudy and Windy SCT026 BKN033 BKN041 29 25     77%   35 1007.1 1006.5 0    
Jul 11 22:53 ENE 35 16.09 Partly Cloudy and Windy FEW024 SCT030 SCT036 29 24     75%   35 1007.8 1007.1      
Jul 11 22:04   16.09 Partly Cloudy FEW022 SCT046 29 24     77%   34 1007.5        
Jul 11 21:53   14.48 Mostly Cloudy SCT022 BKN028 BKN032 29 25     80%   34 1007.5 1006.8 0 0  
Jul 11 21:50 ENE 39 14.48 Mostly Cloudy and Windy SCT022 BKN028 BKN044 29 25     79%   35 1007.5   0    
Jul 11 20:53   16.09 Mostly Clear FEW021 29 25     77%   35 1007.8 1007      
Jul 11 19:53 E 41 14.48 Mostly Clear and Windy FEW022 29 24     74%   33 1007.5 1006.6      
Jul 11 19:14 E 33 16.09 Mostly Clear and Windy FEW024 29 24     72%   34 1006.8        
Jul 11 18:53   16.09 Mostly Cloudy BKN025 BKN035 29 24     75%   35 1006.4 1005.9      
Jul 11 17:53 ENE 41 16.09 Partly Cloudy and Windy SCT026 31 24     70%   36 1007.1 1006.5      
Jul 11 16:53   16.09 Partly Cloudy SCT031 31 24     68%   37 1007.5 1006.8      
Jul 11 15:53 ENE 37 16.09 Mostly Clear and Windy FEW032 32 23     59%   36 1008.1 1007.3      
Jul 11 14:53 ENE 35 16.09 Mostly Cloudy and Windy SCT040 BKN055 32 24     62%   38 1008.8 1008.2      
Jul 11 13:53 ENE 30 16.09 Mostly Cloudy FEW039 BKN055 BKN110 32 24     63%   37 1009.2 1008.5      
Jul 11 12:53 ENE 24 16.09 Mostly Clear FEW033 FEW040 33 25     64%   40 1009.5 1008.9      
Jul 11 11:53 NE 32 16.09 Partly Cloudy and Windy SCT015 32 24     64%   39 1010.2 1009.5      
Jul 11 10:53 NE 24 16.09 Clear CLR 31 25     70%   38 1010.5 1010      
Jul 11 09:53 NNE 24 16.09 Clear CLR 30 25     75%   36 1011.2 1010.4      
Jul 11 08:53 NE 26 12.87 Mostly Clear FEW025 29 25     77%   35 1011.2 1010.6      
Jul 11 07:53 NE 26 12.87 Clear CLR 28 25     82%   33 1010.8 1010.2      
Jul 11 06:53 ENE 21 12.87 Clear CLR 28 25     85%   32 1010.8 1010      
Jul 11 04:53 NNE 17 16.09 Clear CLR 28 24     82%   32 1010.2 1009.4      
Jul 11 03:53 NNE 13 16.09 Clear CLR 28 24     82%   32 1010.2 1009.5      
Jul 11 02:53 NE 11 16.09 Clear CLR 28 24     82%   32 1010.8 1010.3      
Jul 11 01:53 NE 21 16.09 Mostly Cloudy BKN037 28 24     79%   32 1011.9 1011      
Jul 11 00:53 ENE 15 16.09 Clear CLR 28 24     79%   32 1011.5 1010.8      
Jul 10 23:53 NNE 17 16.09 Clear CLR 28 24     79%   32 1012.5 1011.7      
Jul 10 22:53 NNE 17 16.09 Clear CLR 28 24     79%   32 1012.9 1012.2      
Jul 10 20:53 NNW 17 14.48 Clear CLR 28 24     77%   32 1011.9 1011.3      
Jul 10 19:53 N 18 16.09 Clear CLR 29 24     74%   33 1012.5 1011.7      
Jul 10 19:10 NNE 13 16.09 Clear CLR 27 24     85%   31 1012.5        
Jul 10 17:53 NW 26 16.09 Partly Cloudy SCT090 SCT120 29 24     72%   34 1012.5 1011.8      
Jul 10 17:40 NW 28 16.09 Mostly Clear FEW085 29 24     75%   35 1012.2        
Jul 10 16:53   11.27 Mostly Clear FEW013 FEW080 29 24     75%   35 1012.5 1011.7      
Jul 10 14:53 W 21 8.05 Haze SCT010 29 27     85%   37 1013.2 1012.7      
Notice The following observation data may not be complete
Jul 10 14:04   8.05 Fog/Mist BKN010          %              
Jul 10 13:53 W 18 8.05 Fog/Mist SCT010 29 27     88%   36 1013.9 1013.2      
Jul 10 13:37   9.66 Haze SCT009 29 26     85%   36 1013.9        
Jul 10 12:53   9.66 Haze SCT013 SCT017 BKN021 29 26     85%   36 1014.2 1013.6     4
Jul 10 12:29   9.66 Haze SCT011 BKN018 OVC023 29 26     85%   36 1014.6        
Notice The following observation data may not be complete
Jul 10 12:19   11.27 Cloudy BKN013 BKN018 OVC025          %              
Jul 10 11:53 NW 24 11.27 Mostly Cloudy BKN015 BKN025 29 27     85%   37 1014.9 1014.2      
Jul 10 11:47 NW 24 11.27 Mostly Cloudy BKN015 29 26     84%   36 1014.9        
Jul 10 10:10 SW 17 12.87 Mostly Cloudy SCT016 SCT041 BKN075 27 25     88%   31 1015.2   0    
Jul 10 09:36 N 9 8.05 Thunderstorms and Rain FEW018 BKN022 BKN060 28 25     85%   32 1015.2   0    
Jul 10 09:11 Calm 8.05 Light Rain and Fog/Mist BKN015 OVC022 26 24     93%   27 1015.2   0    
Jul 10 08:35 SW 18 8.05 Thunderstorms and Rain BKN015 OVC022 28 24     79%   33 1014.6   0    
Jul 10 08:22   11.27 Thunderstorms BKN019 OVC024 29 24     74%   33 1014.6   0    
Jul 10 08:15 5 14.48 and Thunderstorms BKN019 OVC024 28 24     77%   32 1014.6   0    
Jul 10 07:53   16.09 Thunderstorms and Rain FEW007 BKN024 OVC030 27 24     85%   29 1013.9 1013.3 3    
Jul 10 07:46   14.48 Thunderstorms and Rain SCT007 BKN023 OVC029 25 23     90%   26 1013.9   3    
Jul 10 07:38   6.44 Thunderstorms and Rain and Fog/Mist and Squalls BKN007 BKN013 OVC025 26 24     93%   27 1012.9   3    
Jul 10 07:36   4.02 Thunderstorms and Rain and Fog/Mist BKN007 OVC025 26 24     93%   27 1012.2   3    
Jul 10 07:19   0.8 Thunderstorms and Heavy Rain and Fog VV007 27 26     94%   30 1013.2   2    
Jul 10 07:05 S 32 2.82 Thunderstorms and Heavy Rain and Fog/Mist BKN006 BKN016 OVC041 27 25     90%   30 1013.9   0    
Jul 10 06:59 S 21 4.02 Thunderstorms and Heavy Rain and Fog/Mist SCT006 BKN012 OVC042 27 25     90%   30 1013.9   0    
Jul 10 06:56 S 18 4.02 Heavy Rain and Fog/Mist SCT008 BKN025 OVC042 27 26     94%   30 1013.9   0    
Jul 10 06:53 SSW 18 3.22 Heavy Rain and Fog/Mist FEW008 BKN027 OVC042 27 26     91%   31 1013.9 1013.2 1   1
Jul 10 06:51 SSW 21 3.22 Heavy Rain and Fog/Mist FEW008 BKN027 OVC042 27 26     94%   31 1013.9   1    
Jul 10 06:46 SW 24 3.22 Thunderstorms and Heavy Rain and Fog/Mist FEW010 BKN029 OVC042 28 26     88%   33 1013.9   1    
Jul 10 06:40 WSW 26 1.61 Thunderstorms and Heavy Rain and Fog/Mist FEW010 SCT029 OVC042 28 26     88%   33 1014.2   1    
Jul 10 06:32 W 15 0.8 Thunderstorms and Heavy Rain and Fog FEW014 BKN027 OVC049 28 26     88%   33 1014.2   1    
Jul 10 06:27 W 17 1.21 Heavy Rain and Fog/Mist FEW016 BKN034 OVC048 28 26     88%   33 1014.2   1    
Jul 10 06:22 W 17 2.82 Thunderstorms and Heavy Rain FEW016 BKN041 OVC048 28 25     85%   32 1014.2   0    
Jul 10 06:14   6.44 Thunderstorms and Heavy Rain SCT043 BKN050 BKN090 28 25     82%   33 1013.6   0    
Jul 10 05:53   16.09 Mostly Clear FEW090 28 24     79%   32 1013.2 1012.6 0    
Jul 10 05:15   16.09 Mostly Clear FEW075 27 22     74%   30 1013.2        
Jul 10 04:53 WSW 32 16.09 Mostly Clear and Windy FEW039 28 24     77%   32 1013.2 1012.6 0    
Jul 10 04:38 WSW 30 16.09 Light Rain FEW039 SCT048 28 24     79%   33 1013.2   0    
Jul 10 04:20 W 30 16.09 Mostly Cloudy FEW041 BKN050 BKN060 29 26     82%   35 1013.2        
Jul 10 04:05 W 33 16.09 Partly Cloudy and Windy SCT050 SCT095 29 26     82%   35 1013.2        
Jul 10 03:53   16.09 Mostly Clear FEW100 29 26     82%   36 1012.9 1012.3 0 0  
Jul 10 02:53 WSW 28 14.48 Light Rain FEW011 FEW048 BKN060 28 26     85%   34 1012.9 1012.3 0    
Jul 10 01:53 SSW 18 11.27 Clear CLR 29 23     72%   33 1013.9 1013.1      
May 14 17:53 WNW 5 11.27 Clear CLR 31 22     57%   34 1012.2 1011.6      
May 13 08:53 NNE 8 12.87 Clear CLR 27 22     74%   29 1020 1019.1      
May 12 01:53 SE 11 16.09 Clear CLR 24 21     82%   24 1018 1017.2      
May 11 21:53 SE 15 16.09 Clear CLR 26 18     64%   26 1018.6 1017.8      
Jun 11 19:39 SE 13 12.87 Cloudy FEW027 BKN033 OVC055 26 25     96%   27 1016.6   0    
Jun 11 19:17 SE 17 6.44 Light Rain and Fog/Mist FEW022 BKN030 OVC041 26 24     93%   27 1016.9   0    
Notice The following observation data may not be complete
Jun 11 17:02   16.09 Light Rain FEW019 BKN027 OVC065          %         0    
Jun 11 14:53 SE 32 2.41 Heavy Rain and Fog/Mist SCT020 SCT032 BKN055 28 26     88%   33 1016.6 1016 0    
Jun 11 12:17 SE 28 16.09 Mostly Clear FEW025 31 24     68%   36 1017.3        
Jun 09 22:53 S 11 16.09 Clear CLR 24 20     76%   25 1013.9 1013.3      
Jun 07 23:53 NNE 24 16.09 Clear CLR 25 18     64%   25 1011.2 1010.5      
Jun 07 10:53 N 26 16.09 Partly Cloudy FEW019 SCT023 27 22     74%   29 1009.5 1008.7      
Jun 06 07:53 NNE 8 16.09 Cloudy FEW027 BKN033 OVC044 26 23     82%   28 1005.8 1005.1      
Jun 06 05:53 NE 5 16.09 Cloudy OVC023 25 22     84%   26 1005.8 1005      
Jun 06 02:53 Calm 16.09 Mostly Clear FEW024 24 22     90%   25 1005.8 1005.2      
Jun 05 18:53 ENE 13 16.09 Mostly Cloudy BKN017 BKN026 BKN100 26 23     85%   28 1006.1 1005.3     0